Weather Roundup
Issued by NWS

Home | Current Version | Previous Version | Text Only | Print | Product List | Glossary On
Versions: 1 2 3 4 5 6 7 8 9 10 11 12 13 14 15 16 17 18 19 20 21 22 23 24 25 26 27 28 29 30 31 32 33 34 35 36 37 38 39 40 41 42 43 44 45 46 47 48 49 50
363
NZUS93 KARX 290610
HRRWXR

CURRENT HOURLY OBSERVATIONS ACROSS
MUCH OF THE UPPER MISSISSIPPI VALLEY
NATIONAL WEATHER SERVICE LA CROSSE WI
100 AM CDT THU SEP 29 2016


...SOUTHEAST MINNESOTA...


CITY           SKY/WX    TMP DP  RH WIND       PRES   REMARKS
ROCHESTER      CLEAR     51  50  96 N9        30.34R
ROCHESTER/MAYO FAIR      53  51  94 CALM      30.34S
WINONA         CLEAR     55  52  88 NE9       30.32S
AUSTIN         CLEAR     48  46  93 N5        30.34R
ALBERT LEA     CLEAR     52  50  93 N6        30.35R
DODGE CENTER   CLEAR     48  46  93 N5        30.35R
PRESTON        CLEAR     50  48  92 N7        30.32S
OWATONNA       CLEAR     48  45  87 CALM      30.36S
FARIBAULT      CLEAR     50  48  93 N5        30.37R
$$

...ELSEWHERE IN MINNESOTA...


CITY           SKY/WX    TMP DP  RH WIND       PRES   REMARKS
MINNEAPOLIS    CLEAR     52  47  83 NE7       30.37S
INTNL FALLS    CLOUDY    53  49  86 SE3       30.44R
DULUTH         CLOUDY    52  50  93 CALM      30.40S
RED WING       CLEAR     52  48  87 NW3       30.35R
REDWOOD FALLS  CLEAR     51  46  83 N5        30.39R
MANKATO        CLEAR     49  47  93 NW7       30.37R
WORTHINGTON    CLEAR     46  44  93 N6        30.39S
FAIRMONT       CLEAR     47  45  93 N6        30.37R
$$

...SOUTHWEST WISCONSIN...


CITY           SKY/WX    TMP DP  RH WIND       PRES   REMARKS
LA CROSSE      CLEAR     56  53  90 N7        30.31R
PRAIRIE DU CHI CLEAR     51  48  91 CALM      30.27S
BOSCOBEL       CLEAR     47  45  93 CALM      30.28R FOG
LONE ROCK      CLEAR     49  47  93 W3        30.26S
PLATTEVILLE    CLEAR     51  51 100 N8        30.24S
FORT MC COY    CLEAR     50  49  98 N3        30.32R
CAMP DOUGLAS   CLEAR     47  46  97 NW3       30.30R
MAUSTON-NEW LI CLEAR     49  48  97 NW6       30.28S
VIROQUA        FAIR      49  49  98 N7        30.30R
WIS DELLS      CLEAR     50  48  93 CALM      30.26S
$$

...ELSEWHERE IN WISCONSIN...


CITY           SKY/WX    TMP DP  RH WIND       PRES   REMARKS
MILWAUKEE      PTCLDY    59  55  87 N22G32    30.15R
MADISON        CLEAR     52  50  93 N12       30.22R
GREEN BAY      CLEAR     53  53 100 N10       30.27R
EAU CLAIRE     CLEAR     52  50  93 N6        30.35R
BLACK RVR FLS  FAIR      52  52 100 N5        30.32S
MEDFORD        CLEAR     49  49 100 NE8       30.34S
WAUSAU         CLEAR     50  48  93 N7        30.32R
WIS RAPIDS     CLEAR     51  50  96 N10       30.31S
MARSHFIELD     CLEAR     53  48  83 NE9       30.31S
RICE LAKE      CLEAR     48  46  93 N5        30.39R
$$

...NORTHEAST IOWA...


CITY           SKY/WX    TMP DP  RH WIND       PRES   REMARKS
WATERLOO       CLEAR     52  49  89 N10       30.28S
DUBUQUE        CLEAR     50  48  93 N9        30.25R
DECORAH        CLEAR     54  52  94 N6        30.29S
MASON CITY     CLEAR     49  48  97 N5        30.34S
CHARLES CITY   CLEAR     52  52 100 N8        30.31S
OELWEIN        CLEAR     52  50  93 N9        30.28F
$$

...ELSEWHERE IN IOWA...


CITY           SKY/WX    TMP DP  RH WIND       PRES   REMARKS
DES MOINES     CLEAR     55  50  83 N9        30.29S
IOWA CITY      CLEAR     55  50  83 N10       30.25S
FORT DODGE     CLEAR     52  45  76 N5        30.34S
MARSHALLTOWN   CLEAR     53  51  93 N8        30.28S
CEDAR RAPIDS   CLEAR     50  50 100 N6        30.25R
$$

...NORTHERN ILLINOIS...


CITY           SKY/WX    TMP DP  RH WIND       PRES   REMARKS
CHICAGO-OHARE  CLOUDY    60  55  83 N13       30.07S
CHICAGO-MIDWAY CLOUDY    63  54  72 N10       30.05F
MOLINE         CLEAR     56  49  77 N6        30.19S
ROCKFORD       MOCLDY    56  49  77 N12       30.18S
PEORIA         PTCLDY    54  50  86 VRB5      30.12F
$$

NOTE: "FAIR" INDICATES FEW OR NO CLOUDS BELOW 12,000 FEET WITH NO
SIGNIFICANT WEATHER AND/OR OBSTRUCTIONS TO VISIBILITY. WIND
SPEEDS ARE IN MILES-PER-HOUR.




USA.gov is the U.S. government's official web portal to all federal, state and local government web resources and services.